Temperature
14 15 15 16 13 11 13 14 14 14 14 15 15 15 14 14 15 15 14 14 15 14 14 14 14 14 14 14 14 14 14 14 14 14 14 14 14 14 14 14 14 14 14 14 14 14 14 14 14
14 15 15 15 12 13 13 13 14 14 15 15 15 14 14 14 14 14 14 14 14 14 14 14 13 13 13 13 13 13 14 13 14 14 13 13 13 13 13 13 14 14 14 14 14 14 14 14 14
14 15 15 11 11 12 15 14 13 14 15 15 14 14 14 13 14 14 14 14 14 14 14 14 13 13 13 13 13 13 13 13 13 13 13 13 13 13 13 13 13 13 13 13 13 13 13 14 14
14 15 13 11 12 12 13 13 13 13 14 14 13 13 13 13 14 14 14 14 14 14 13 13 13 13 13 13 13 13 13 13 13 13 13 13 13 13 13 13 13 13 13 13 13 13 13 13 13
14 14 11 11 12 12 12 13 13 13 13 13 13 12 12 13 13 14 14 13 13 13 13 13 13 13 13 13 13 13 13 13 13 13 13 12 12 13 13 13 13 13 13 13 13 13 13 13 13
13 10 10 11 12 12 12 13 13 12 12 13 13 12 12 13 13 13 13 13 13 13 13 13 13 13 13 13 13 13 12 12 12 12 12 12 12 12 13 13 13 13 12 12 12 12 12 13 13
12 9 10 11 11 12 12 13 13 12 12 12 13 11 12 13 13 13 13 13 13 13 13 13 13 12 12 12 12 12 12 12 12 12 12 12 12 12 12 12 13 12 12 12 12 12 12 12 12
12 9 10 10 11 12 12 13 13 12 12 13 13 12 12 13 13 12 12 12 12 12 12 12 12 12 12 12 12 12 12 12 12 12 12 12 12 12 12 12 12 12 12 12 12 12 12 12 12
12 9 9 10 10 11 12 12 12 12 12 12 12 12 13 12 12 12 12 12 12 12 12 12 12 12 12 12 12 12 12 12 12 12 12 12 12 12 12 12 12 12 12 12 12 12 12 12 12
10 8 10 10 10 11 11 11 12 12 11 11 12 12 12 12 12 12 12 12 12 12 12 12 12 12 11 11 11 11 11 11 11 11 11 11 12 11 12 12 12 12 12 12 12 12 12 12 12
9 8 9 10 10 10 10 11 11 11 10 11 11 12 12 12 11 11 12 12 12 12 11 11 11 11 11 11 11 11 11 11 11 11 11 11 11 11 11 11 11 11 11 11 11 11 11 11 11
8 8 9 10 10 10 10 10 10 10 11 12 12 12 11 11 11 11 11 11 11 11 11 11 11 11 11 11 11 11 11 11 11 11 11 11 11 11 11 11 11 11 11 11 11 11 11 11 11
8 8 9 9 10 10 9 9 9 9 10 11 11 11 11 11 11 11 11 11 11 11 11 11 11 11 11 10 10 10 10 10 10 10 10 10 10 10 11 11 11 11 11 11 11 11 11 10 10
8 8 8 9 9 9 9 8 8 9 10 10 10 10 10 10 10 10 10 10 10 11 11 11 10 10 10 10 10 10 10 10 10 10 10 10 10 10 10 10 10 10 10 10 10 10 10 10 10
8 7 8 8 8 8 8 8 8 9 9 9 9 10 10 10 10 10 10 10 10 10 10 10 10 10 10 10 10 10 9 9 9 9 9 9 9 9 9 9 9 9 9 9 9 9 9 9 10
7 7 7 8 8 8 8 8 8 9 8 8 9 9 9 9 9 9 9 10 10 10 10 10 9 9 9 9 9 9 9 9 9 9 9 9 9 9 9 9 9 9 9 9 9 9 9 9 9
6 6 6 7 7 7 7 7 7 8 8 7 8 8 8 9 9 9 9 9 9 9 9 9 9 9 9 9 9 8 9 9 8 8 8 8 8 8 8 8 8 8 8 8 8 8 8 8 9
6 6 6 6 6 6 6 6 6 7 7 6 7 7 7 8 8 8 8 9 9 9 9 9 9 8 8 8 8 8 8 8 8 8 8 8 8 8 8 8 8 8 8 8 8 8 8 8 8
6 6 6 6 6 6 5 6 6 6 6 5 6 6 7 7 7 7 8 8 8 8 8 8 8 8 8 8 8 8 8 8 8 7 7 7 7 7 7 7 7 7 7 7 7 7 7 7 7
5 6 5 5 6 6 5 5 5 5 5 5 6 6 6 6 7 7 7 7 7 7 7 7 7 7 7 7 7 7 7 7 7 7 7 7 7 7 7 7 7 7 6 6 7 6 6 6 6
5 5 5 5 5 5 5 5 5 5 5 5 6 6 6 6 6 6 6 6 7 7 7 7 7 7 7 7 6 6 6 6 6 6 6 6 6 6 6 6 6 6 6 6 6 6 6 6 6
5 5 5 5 4 3 4 4 5 4 4 4 4 5 5 6 6 6 6 6 6 6 6 6 6 6 6 6 6 6 6 6 6 6 6 5 5 5 5 5 5 5 5 5 5 5 5 5 5
4 4 4 4 3 3 3 3 4 3 4 4 3 4 5 5 5 6 6 6 6 6 6 6 6 6 6 6 5 5 5 5 5 5 5 5 5 5 5 5 5 5 5 5 5 5 5 4 4
4 3 3 2 2 3 3 3 4 3 3 3 3 4 4 5 5 5 5 5 5 5 5 5 5 5 5 5 5 5 5 5 4 4 4 4 4 4 4 4 4 4 4 4 4 4 4 4 4
3 3 2 3 2 3 2 2 3 3 3 2 2 3 4 4 4 5 5 5 5 5 5 5 5 5 5 4 4 4 4 4 4 4 4 4 4 4 4 4 4 3 3 3 3 3 3 3 3
3 3 3 3 2 2 2 2 3 3 2 3 3 3 4 4 4 4 4 5 5 4 4 4 4 4 4 4 4 4 4 3 3 3 3 3 3 3 3 3 3 3 3 3 3 3 3 3 3
2 2 2 1 1 1 2 1 2 3 2 2 2 2 3 3 4 4 4 4 4 4 4 4 4 4 4 3 3 3 3 3 3 3 3 3 3 3 2 2 2 2 2 2 2 2 3 3 2
2 1 0 1 2 3 3 2 2 3 3 2 1 1 2 3 3 4 4 4 4 4 4 4 3 3 3 3 3 3 3 3 2 2 2 2 2 2 2 2 2 2 2 2 2 2 2 2 2
1 1 1 0 1 2 2 3 3 2 2 1 1 2 2 3 3 3 3 3 3 3 3 3 3 3 3 2 2 2 2 2 2 2 2 2 2 1 1 1 2 2 2 1 1 1 2 1 1
2 1 0 1 1 -0 0 2 3 1 1 1 1 2 2 3 3 3 3 3 3 3 3 3 2 2 2 2 2 2 2 2 2 1 1 1 1 1 1 1 1 1 1 1 1 1 1 1 1
Wind_Speed
7 3 3 4 5 3 4 5 3 2 2 1 1 3 5 5 4 3 1 2 4 4 5 7 8 8 9 9 9 9 9 9 8 8 8 8 8 7 7 7 7 7 8 8 8 8 9 8 8
3 2 4 5 4 2 6 5 5 4 3 3 2 3 3 1 0 2 1 2 5 5 5 6 8 9 9 9 8 8 8 8 8 7 8 7 7 7 7 7 6 6 6 7 7 7 8 8 7
2 3 4 4 4 7 6 3 5 2 1 2 2 2 2 1 1 2 2 4 5 5 5 6 9 9 8 8 8 7 7 7 7 7 7 7 6 6 6 6 6 5 5 6 6 6 6 6 6
3 4 4 3 6 7 5 2 2 2 1 2 3 2 1 2 1 2 3 6 6 5 5 6 9 8 8 8 7 7 6 6 6 6 6 6 6 5 5 5 5 5 4 4 5 5 5 5 5
4 4 3 1 6 5 4 3 2 3 2 1 3 3 0 3 2 4 5 6 7 5 5 6 8 8 8 7 7 6 6 6 6 6 5 6 5 5 4 4 4 4 3 3 3 4 4 4 4
4 4 3 5 7 5 3 2 2 2 2 2 4 3 1 1 2 3 5 5 5 5 5 5 7 7 7 6 6 5 5 5 5 5 5 5 5 5 4 4 3 3 3 2 2 2 3 3 4
4 4 4 5 4 5 3 1 3 3 2 2 4 4 1 1 1 3 4 5 5 5 5 4 4 5 5 5 5 5 5 5 5 4 4 4 4 4 4 4 3 2 2 1 1 2 2 3 3
4 4 2 3 4 5 2 0 1 3 3 1 4 5 4 3 4 5 5 4 4 4 3 3 4 4 4 4 4 5 4 4 4 4 4 5 4 4 4 4 3 2 2 1 1 1 1 1 1
3 2 4 5 5 4 1 0 2 0 2 1 1 2 2 6 6 6 4 3 2 2 1 2 2 3 4 4 4 4 4 4 4 4 4 4 4 3 3 3 3 3 2 2 1 0 0 1 1
3 3 5 3 3 2 2 2 2 1 0 1 1 1 3 6 7 6 5 5 4 3 2 1 2 2 3 3 3 4 3 3 4 4 3 3 3 3 3 3 3 3 3 2 2 1 2 2 2
3 5 3 2 2 2 2 2 1 3 4 5 5 5 5 5 5 5 5 5 5 4 3 2 2 2 2 2 2 2 3 3 3 3 3 3 3 3 3 3 3 4 4 3 3 3 3 2 2
2 2 2 3 3 2 2 1 1 3 6 4 4 6 6 6 6 6 6 4 3 2 3 3 2 2 2 2 2 2 2 2 1 1 2 2 2 2 2 2 2 3 3 3 3 2 3 2 2
3 2 2 3 2 2 2 3 3 5 5 2 2 4 6 6 5 4 4 3 3 3 2 2 3 3 2 2 1 1 1 1 1 2 2 2 1 1 1 1 2 2 2 2 2 2 2 2 2
2 1 2 3 2 2 3 5 3 6 2 1 3 4 5 5 4 3 3 3 3 3 3 2 3 3 3 2 2 2 1 1 1 1 2 2 2 2 1 0 1 1 2 2 2 1 1 1 1
1 1 3 3 2 2 1 5 6 4 1 2 3 3 3 3 3 4 4 4 4 3 2 2 2 2 3 3 2 2 2 2 1 1 2 2 2 2 1 1 0 1 2 2 2 2 1 1 1
2 1 3 3 1 1 2 8 6 2 2 4 4 3 3 3 3 3 3 3 3 2 1 2 1 1 2 2 2 2 2 2 2 2 2 2 2 2 1 1 1 1 1 1 1 1 1 1 1
1 2 4 5 1 0 3 8 5 2 3 5 5 4 3 3 2 2 2 3 3 3 2 1 1 1 2 2 1 1 1 1 2 2 2 2 2 2 1 1 0 0 0 1 1 1 1 2 2
4 4 5 5 3 2 5 9 8 5 4 6 5 4 4 4 4 3 2 1 1 1 2 1 1 1 1 1 1 1 0 1 1 1 1 2 2 2 1 1 0 0 0 1 1 1 1 2 2
2 3 6 6 3 3 8 11 11 7 5 6 6 5 5 5 3 1 1 1 1 1 1 1 1 1 1 1 1 1 2 2 1 1 1 2 2 2 2 1 1 1 1 1 1 1 1 1 1
3 4 5 5 2 3 7 11 9 6 6 6 7 6 6 4 2 1 1 1 1 1 1 1 1 1 1 1 1 1 1 2 2 1 1 1 1 2 2 2 2 2 1 1 1 1 1 1 1
4 4 5 5 5 2 4 8 5 4 3 4 4 5 5 5 4 2 1 2 1 1 2 2 2 1 1 1 1 1 1 1 0 1 1 2 2 2 2 2 2 2 2 2 2 2 2 2 2
4 3 4 3 2 4 1 6 7 4 4 4 4 4 4 4 3 3 2 2 2 2 2 1 1 1 1 1 2 2 2 2 2 2 2 2 2 2 2 2 2 3 2 3 3 2 2 3 2
3 1 1 1 2 3 1 3 8 3 5 6 5 5 4 3 4 3 3 2 1 1 0 1 1 0 0 1 2 3 2 2 1 1 2 2 2 2 3 2 2 2 2 3 3 3 3 3 3
1 2 3 3 2 3 4 4 7 4 6 5 4 4 3 3 2 2 2 1 0 0 0 1 1 0 1 1 1 3 3 2 1 2 2 2 2 2 2 2 2 2 2 3 3 3 4 4 3
3 4 4 4 3 6 2 4 8 5 5 5 5 4 3 2 2 2 2 1 1 1 1 1 1 1 1 1 1 2 3 3 4 3 3 3 2 2 3 2 2 2 3 3 3 3 4 4 4
1 4 5 4 4 5 2 6 7 4 4 3 3 2 2 2 2 2 3 3 2 2 2 1 2 2 1 1 2 2 2 2 3 3 3 3 3 3 3 2 2 2 3 3 2 3 3 3 4
3 2 3 3 1 3 6 6 8 3 3 3 2 2 2 2 2 3 3 2 2 2 3 2 2 2 2 2 2 2 2 2 3 3 3 3 3 3 3 3 2 2 2 3 3 3 3 3 4
3 5 4 3 2 5 6 5 5 5 5 4 3 4 4 3 3 3 3 3 3 3 2 2 2 2 2 2 2 2 2 2 2 2 3 3 3 3 3 3 3 3 3 3 3 3 3 3 3
3 3 3 3 3 3 5 6 4 5 4 4 5 4 4 4 4 4 3 3 3 2 1 1 1 2 2 2 2 2 2 2 2 2 3 3 3 3 3 4 3 3 3 3 3 3 2 3 3
4 5 6 4 4 4 4 8 3 3 3 3 5 4 4 4 4 3 3 3 2 2 2 1 1 2 2 2 2 2 2 1 1 2 2 2 3 3 4 4 3 3 3 3 3 3 3 4 4
Wind_Direction
352 17 70 59 59 58 235 235 212 204 196 198 122 126 143 152 165 182 241 145 128 138 144 139 135 130 123 116 111 107 103 100 102 105 103 101 101 99 94 92 94 95 94 92 90 89 89 89 86
350 38 58 66 107 204 255 229 213 211 183 133 82 95 103 143 99 115 145 161 127 128 127 136 135 131 126 119 114 110 107 102 99 103 104 104 100 94 90 88 90 91 93 92 91 91 91 89 87
15 49 86 90 150 200 227 214 209 223 161 131 99 59 126 156 159 170 192 148 119 114 117 135 136 132 127 123 119 115 110 104 101 100 103 102 100 96 89 86 88 87 91 94 93 92 94 92 91
59 47 62 105 211 223 226 232 202 171 129 89 129 85 9 344 223 177 135 128 118 112 111 132 136 134 128 124 123 119 114 109 105 102 101 99 97 95 93 89 89 91 98 99 97 94 96 99 95
58 79 87 221 234 243 244 243 177 167 175 140 137 136 304 347 55 114 125 127 126 120 107 125 134 134 135 133 129 123 116 111 107 104 101 99 95 91 90 94 89 89 103 112 109 101 101 102 100
58 75 136 224 238 253 258 236 178 164 180 143 142 143 227 10 102 126 129 126 123 120 102 107 125 130 132 132 129 126 121 116 109 105 99 95 90 85 81 85 88 84 86 115 120 109 108 113 105
115 122 191 214 237 256 257 205 174 179 186 208 161 145 220 239 160 125 119 113 108 106 101 88 101 113 122 128 130 125 121 115 113 106 97 90 82 76 74 68 65 66 69 104 125 125 124 115 105
125 121 180 217 220 247 267 142 186 175 205 171 145 160 205 205 138 108 100 98 101 102 107 100 92 95 94 103 119 125 124 111 105 98 87 80 79 73 70 59 52 48 43 50 118 122 144 133 114
97 101 216 218 208 244 285 172 303 135 123 78 180 194 210 128 123 113 106 107 117 122 115 107 103 92 93 98 102 103 112 111 102 94 84 81 77 75 66 56 49 44 35 30 58 79 53 71 90
105 180 225 232 213 242 275 214 221 124 175 242 286 345 105 126 139 146 155 172 177 184 184 170 152 120 101 104 99 94 99 100 96 91 88 83 76 73 65 58 50 40 34 28 35 45 51 35 31
154 195 231 272 278 267 270 284 245 173 233 221 211 193 153 152 162 174 178 181 190 191 187 190 187 148 129 113 101 91 90 87 89 93 95 87 76 67 57 52 40 30 30 32 34 35 36 36 25
179 240 236 267 282 266 256 265 280 227 238 248 210 175 166 175 185 188 185 189 181 183 204 199 193 173 153 128 118 111 95 85 89 103 111 100 78 63 51 46 36 31 24 24 31 30 22 18 2
211 248 261 267 281 255 246 251 260 261 271 275 157 159 172 178 187 193 186 182 179 191 216 216 189 181 172 152 155 145 147 146 149 145 135 128 118 107 59 43 42 25 22 21 12 19 12 6 354
232 252 297 303 288 290 250 266 252 265 272 209 166 182 186 183 185 187 187 191 195 209 217 221 205 185 170 170 174 179 169 160 149 150 158 146 141 140 124 64 19 10 11 11 3 345 325 311 334
36 341 315 288 267 263 264 282 242 257 225 219 214 203 197 201 189 195 203 197 199 207 212 216 209 181 173 180 187 175 175 161 159 172 175 156 152 149 135 146 319 332 350 3 5 351 347 309 317
42 25 287 283 241 251 160 263 261 266 216 233 232 223 221 234 215 210 206 200 197 183 200 220 202 176 188 187 183 176 172 169 178 180 178 170 166 154 135 172 238 306 357 9 328 325 326 296 289
31 250 258 287 242 249 205 256 269 283 240 242 237 231 227 239 254 237 216 205 199 188 191 187 185 177 179 183 170 168 167 186 201 189 181 184 175 163 154 194 233 259 7 340 309 345 313 290 294
229 233 250 260 284 272 252 260 275 268 244 243 243 237 232 233 250 255 232 217 195 172 174 150 137 159 148 148 127 121 156 209 230 216 209 189 181 176 171 195 240 186 248 304 294 287 312 291 287
215 233 258 268 288 267 256 268 275 269 251 245 242 238 237 242 256 265 238 190 146 132 142 154 142 160 129 136 160 192 224 223 224 244 237 219 196 188 185 208 210 207 208 245 252 271 295 317 315
225 261 269 290 315 278 282 277 270 250 232 233 235 234 234 239 270 294 297 242 184 189 208 201 183 170 163 182 190 202 212 221 217 228 235 235 217 212 211 203 207 212 212 238 236 198 211 288 319
246 235 255 274 319 319 309 293 266 261 241 250 240 232 225 215 222 240 269 256 227 228 230 215 204 190 181 164 131 77 56 6 307 227 233 252 243 234 233 222 211 212 204 221 232 206 195 231 274
253 242 250 272 303 293 360 291 283 274 281 265 259 246 237 229 217 213 219 245 235 240 251 238 215 190 180 158 170 170 195 223 241 244 247 261 262 245 235 232 223 213 211 220 234 221 213 204 241
226 329 272 253 198 298 282 240 283 311 275 273 263 248 240 226 215 218 219 226 246 244 256 273 235 186 169 175 192 191 210 226 251 259 264 268 262 259 246 237 228 225 223 222 228 230 220 214 223
142 46 46 49 80 277 229 205 277 248 245 276 285 270 253 234 226 233 231 191 211 186 169 237 227 254 217 193 207 204 214 222 246 266 258 271 275 263 253 244 229 228 230 227 229 224 222 224 223
60 76 19 353 345 255 213 220 254 253 245 248 261 263 263 241 228 243 248 239 240 245 240 220 199 260 264 239 249 229 222 213 225 243 245 259 271 275 269 254 229 231 236 234 228 220 225 223 222
171 139 158 219 248 284 259 239 255 262 268 271 266 257 255 250 251 252 254 245 240 245 254 251 226 250 255 251 267 249 231 222 235 241 240 241 249 259 262 255 248 250 244 241 230 229 231 230 230
138 171 160 147 242 279 269 279 302 283 305 309 308 318 291 276 276 272 273 269 256 249 245 237 237 257 258 253 264 252 234 228 240 251 248 247 253 260 259 253 243 248 246 243 233 234 233 231 239
135 142 110 141 231 273 286 274 263 285 287 288 285 282 285 299 292 288 279 277 275 256 248 233 230 242 258 254 252 266 247 240 236 244 251 254 259 257 256 254 246 244 243 243 239 245 243 236 244
137 134 140 154 185 207 277 273 229 236 261 266 269 275 277 279 277 282 283 286 290 286 264 244 239 257 262 255 258 257 252 243 238 246 255 256 260 257 254 251 246 241 241 238 237 243 246 251 261
184 181 163 181 236 209 236 268 264 232 258 262 275 282 280 276 282 286 287 298 304 292 280 267 259 256 256 251 249 247 252 249 249 261 269 263 261 259 255 251 244 243 242 234 232 242 247 247 255
Height
1486 1487 1489 1492 1496 1505 1504 1498 1494 1493 1493 1492 1492 1492 1494 1496 1500 1504 1500 1499 1501 1503 1505 1507 1508 1510 1511 1512 1514 1515 1516 1517 1518 1518 1519 1519 1520 1520 1521 1522 1522 1522 1523 1524 1524 1524 1525 1525 1525
1486 1488 1491 1491 1501 1509 1503 1494 1493 1491 1490 1491 1491 1492 1493 1495 1496 1497 1497 1499 1501 1503 1505 1506 1508 1510 1511 1512 1513 1514 1515 1516 1517 1518 1518 1519 1520 1520 1521 1521 1522 1522 1523 1523 1524 1524 1525 1525 1525
1486 1488 1490 1493 1501 1503 1495 1490 1490 1489 1490 1490 1492 1492 1494 1495 1495 1496 1498 1499 1501 1503 1504 1506 1508 1509 1510 1512 1513 1514 1515 1516 1517 1517 1518 1519 1519 1520 1520 1521 1521 1522 1522 1523 1523 1524 1524 1525 1525
1487 1489 1490 1496 1497 1494 1490 1488 1488 1489 1489 1490 1491 1493 1494 1495 1496 1497 1497 1499 1501 1502 1504 1505 1507 1509 1510 1511 1513 1514 1514 1515 1516 1517 1517 1518 1518 1519 1520 1520 1521 1521 1522 1522 1523 1523 1524 1524 1524
1487 1488 1494 1498 1494 1490 1488 1487 1487 1488 1489 1490 1491 1492 1493 1495 1495 1496 1497 1499 1500 1502 1503 1505 1506 1508 1509 1511 1512 1513 1514 1515 1515 1516 1516 1517 1518 1518 1519 1519 1520 1520 1521 1521 1522 1523 1523 1523 1524
1487 1488 1498 1497 1492 1488 1486 1486 1486 1487 1488 1489 1490 1492 1493 1494 1495 1496 1497 1499 1500 1501 1503 1504 1506 1507 1508 1509 1511 1512 1513 1514 1514 1515 1515 1516 1517 1517 1518 1518 1519 1519 1520 1520 1521 1521 1522 1522 1523
1487 1492 1495 1493 1492 1488 1486 1485 1486 1487 1487 1489 1489 1491 1492 1494 1495 1496 1497 1498 1499 1501 1502 1503 1505 1506 1507 1508 1510 1511 1511 1512 1513 1514 1514 1515 1515 1516 1516 1517 1517 1518 1518 1519 1520 1520 1521 1521 1521
1485 1491 1493 1494 1491 1487 1485 1485 1485 1486 1487 1488 1489 1490 1490 1492 1493 1495 1496 1498 1499 1500 1501 1502 1503 1505 1506 1507 1508 1509 1510 1511 1511 1512 1513 1513 1514 1514 1515 1515 1516 1516 1517 1517 1518 1518 1519 1519 1520
1485 1493 1494 1491 1489 1486 1484 1485 1485 1486 1486 1487 1487 1488 1489 1491 1492 1494 1495 1496 1498 1499 1500 1501 1502 1503 1504 1505 1506 1507 1508 1509 1510 1510 1511 1511 1512 1513 1513 1514 1514 1514 1515 1515 1515 1516 1516 1517 1517
1485 1492 1489 1486 1485 1485 1484 1484 1484 1485 1485 1485 1486 1487 1488 1489 1490 1491 1492 1494 1495 1497 1498 1499 1500 1501 1502 1503 1504 1505 1506 1507 1508 1508 1509 1509 1510 1511 1511 1512 1512 1512 1513 1513 1513 1514 1514 1515 1515
1484 1487 1486 1484 1484 1484 1484 1483 1483 1484 1484 1483 1483 1484 1485 1487 1488 1489 1490 1492 1493 1495 1496 1497 1498 1499 1500 1501 1502 1503 1504 1505 1505 1506 1507 1507 1508 1508 1509 1509 1509 1510 1510 1511 1511 1511 1512 1512 1513
1484 1484 1484 1483 1483 1483 1483 1483 1483 1482 1481 1481 1482 1482 1483 1484 1486 1487 1488 1490 1491 1493 1494 1495 1496 1497 1498 1499 1500 1500 1501 1502 1503 1503 1504 1505 1505 1505 1506 1506 1507 1507 1508 1508 1508 1509 1509 1510 1510
1484 1483 1483 1482 1482 1482 1482 1482 1481 1479 1479 1479 1480 1480 1481 1482 1483 1485 1486 1488 1489 1490 1491 1493 1494 1495 1495 1496 1497 1498 1498 1499 1500 1501 1501 1502 1502 1502 1503 1503 1504 1504 1505 1505 1506 1506 1507 1507 1507
1483 1483 1482 1482 1481 1481 1481 1480 1480 1476 1477 1477 1477 1478 1478 1479 1481 1482 1484 1485 1486 1488 1489 1490 1491 1492 1493 1493 1494 1495 1496 1496 1497 1498 1498 1499 1499 1500 1500 1500 1501 1501 1502 1502 1502 1503 1503 1504 1504
1482 1483 1482 1481 1480 1480 1481 1480 1477 1475 1476 1475 1475 1476 1476 1477 1479 1480 1481 1482 1484 1485 1486 1487 1488 1488 1489 1490 1491 1492 1493 1494 1494 1495 1495 1496 1496 1497 1497 1497 1498 1498 1499 1499 1500 1500 1500 1500 1500
1483 1485 1486 1481 1480 1479 1483 1480 1474 1474 1474 1473 1474 1474 1474 1475 1477 1478 1479 1480 1481 1482 1483 1484 1484 1485 1486 1487 1488 1489 1490 1491 1491 1492 1492 1493 1493 1493 1494 1494 1495 1495 1496 1496 1496 1497 1497 1497 1497
1487 1489 1487 1483 1480 1479 1481 1478 1473 1473 1472 1471 1471 1472 1472 1473 1474 1475 1476 1477 1478 1479 1480 1480 1481 1482 1483 1484 1485 1486 1486 1487 1488 1489 1489 1489 1490 1490 1490 1491 1491 1492 1492 1492 1493 1493 1493 1493 1493
1488 1489 1486 1484 1480 1480 1480 1476 1472 1470 1470 1470 1469 1469 1470 1470 1471 1472 1473 1474 1475 1476 1477 1477 1478 1479 1480 1481 1481 1482 1483 1484 1485 1485 1486 1486 1486 1487 1487 1487 1488 1488 1488 1489 1489 1489 1490 1489 1489
1485 1486 1486 1482 1480 1480 1478 1473 1469 1467 1468 1467 1467 1467 1467 1467 1468 1469 1470 1470 1471 1473 1474 1474 1475 1476 1477 1477 1477 1478 1479 1480 1481 1482 1482 1482 1482 1483 1483 1484 1484 1484 1485 1485 1486 1485 1486 1486 1486
1484 1485 1484 1481 1479 1479 1477 1472 1466 1465 1464 1464 1463 1463 1464 1464 1465 1466 1467 1467 1468 1469 1470 1471 1471 1472 1473 1474 1474 1475 1476 1476 1477 1478 1478 1479 1479 1479 1479 1480 1480 1480 1480 1481 1482 1482 1482 1482 1482
1483 1484 1483 1483 1480 1479 1478 1471 1466 1462 1461 1461 1461 1461 1461 1461 1462 1463 1463 1464 1465 1466 1467 1467 1468 1469 1470 1471 1472 1472 1472 1472 1473 1474 1474 1475 1475 1475 1475 1476 1476 1476 1477 1477 1478 1478 1478 1478 1479
1482 1481 1482 1482 1485 1485 1482 1480 1465 1463 1461 1459 1458 1458 1458 1459 1459 1460 1461 1461 1462 1463 1464 1464 1465 1466 1466 1467 1468 1468 1468 1468 1469 1469 1470 1471 1471 1471 1471 1471 1472 1472 1472 1473 1474 1474 1474 1475 1475
1481 1480 1482 1483 1486 1488 1485 1486 1468 1464 1461 1457 1455 1455 1455 1456 1457 1458 1458 1459 1460 1461 1461 1462 1463 1463 1463 1464 1464 1464 1465 1465 1465 1466 1466 1467 1467 1467 1467 1467 1467 1468 1468 1469 1469 1470 1470 1471 1471
1481 1482 1484 1488 1489 1489 1485 1485 1470 1465 1459 1455 1454 1453 1453 1453 1454 1456 1456 1457 1458 1459 1459 1459 1459 1460 1460 1461 1461 1461 1461 1461 1461 1462 1462 1462 1463 1463 1463 1463 1463 1463 1464 1464 1465 1465 1466 1466 1466
1482 1487 1494 1493 1496 1487 1483 1482 1469 1458 1455 1454 1453 1452 1451 1452 1453 1453 1454 1455 1455 1456 1456 1456 1457 1457 1457 1457 1458 1458 1458 1458 1458 1458 1458 1458 1458 1458 1459 1459 1459 1459 1460 1460 1460 1460 1461 1461 1462
1484 1485 1493 1494 1495 1487 1484 1480 1463 1455 1453 1452 1451 1450 1450 1451 1451 1451 1452 1452 1453 1453 1453 1453 1454 1454 1454 1454 1454 1455 1454 1455 1455 1455 1455 1454 1454 1454 1455 1455 1455 1455 1455 1455 1455 1456 1456 1456 1457
1483 1487 1488 1495 1498 1495 1482 1474 1461 1453 1451 1450 1450 1449 1449 1449 1450 1450 1450 1450 1450 1451 1451 1451 1451 1451 1451 1451 1451 1451 1451 1451 1451 1451 1451 1451 1451 1451 1451 1451 1451 1451 1451 1451 1451 1451 1451 1452 1452
1482 1485 1492 1493 1491 1486 1478 1474 1465 1453 1451 1450 1449 1449 1448 1448 1448 1448 1448 1448 1448 1448 1448 1448 1448 1448 1448 1448 1448 1448 1448 1448 1448 1448 1447 1447 1447 1447 1447 1447 1446 1446 1447 1447 1447 1447 1447 1447 1447
1484 1486 1488 1492 1492 1489 1484 1468 1455 1452 1450 1450 1449 1448 1447 1447 1447 1447 1447 1446 1446 1446 1445 1445 1444 1444 1444 1444 1445 1444 1444 1444 1444 1444 1444 1443 1443 1443 1443 1443 1442 1442 1442 1443 1443 1442 1442 1442 1443
1479 1481 1485 1488 1489 1492 1488 1469 1450 1450 1448 1448 1447 1447 1446 1446 1446 1445 1445 1444 1443 1443 1442 1442 1441 1441 1441 1441 1441 1441 1441 1441 1440 1440 1440 1439 1439 1439 1439 1438 1438 1438 1438 1438 1438 1438 1438 1438 1438